Location: Kershaw
(34.5481°N, 80.5823°W)
Time: 17:35:22
(UTC+00:00)

Transit 2A - Pass Details

Date: 11 October 2022
Orbit: 598 x 959 km, 66.7° (Epoch: 06 December)

Event Time Altitude Azimuth Distance (km) Brightness Sun altitude
Rises 11:28:59 0° 333° (NNW) 3,036 8.8 0.0°
Reaches altitude 10° 11:31:13 10° 334° (NNW) 2,166 8.0 0.5°
Maximum altitude 11:36:10 87° 64° (ENE) 759 6.1 1.5°
Drops below altitude 10° 11:41:39 10° 154° (SSE) 2,396 9.2 2.6°
Sets 11:44:13 0° 154° (SSE) 3,383 9.9 3.1°
